Location: Unspecified
(58.9933°N, 5.6375°E)
Time: 10:44:33
(UTC+02:00)

Cosmos 1674 - Visible Passes

Search period start: 21 June 2018 00:00
Search period end: 01 July 2018 00:00
Orbit: 498 x 519 km, 82.5° (Epoch: 20 June)

Date Brightness Start Highest point End Pass type
(mag) Time Alt. Az. Time Alt. Az. Time Alt. Az.
21 Jun 5.5 01:05:04 10° W 01:07:25 15° NW 01:09:48 10° NNW visible
22 Jun 5.4 00:47:28 10° W 00:50:08 18° WNW 00:52:50 10° NNW visible
23 Jun 5.3 00:29:55 10° WSW 00:32:52 20° WNW 00:35:49 10° N visible
29 Jun 6.0 00:24:40 10° WNW 00:25:57 11° NW 00:27:15 10° NNW visible
